{"data":{"norad_id":69609,"intl_designator":"2026-140T","name":"KUIPER-00540","alt_names":[],"object_type":"PAYLOAD","status":"ACTIVE","operator":null,"country":"US","launch_date":"2026-06-17","launch_site_code":"FRGUI","launch_vehicle":null,"mission":null,"orbit_class":"UNKNOWN","rcs_meters":null,"size_class":null,"mass_kg":null,"dimensions":null,"purposes":[],"wikipedia_slug":null,"has_3d_model":false,"image_url":null,"decayed_at":null,"tle_current":{"epoch":"2026-09-19T16:59:49.520256Z","epoch_age_seconds":97423,"freshness":"FRESH","line1":"1 69609U 26140T   26262.70821204  .00014604  00000+0  38990-3 0  9991","line2":"2 69609  51.8821 301.7827 0005050 268.0567  91.9841 15.38334333 15777","mean_motion":15.38334333,"eccentricity":0.000505,"inclination_deg":51.8821,"raan_deg":301.7827,"arg_perigee_deg":268.0567,"mean_anomaly_deg":91.9841,"bstar":0.0003899,"rev_number":1577,"period_min":93.607739820236,"perigee_km":447.58577128669,"apogee_km":454.48323450461,"semimajor_km":6829.1715028957,"source":"CELESTRAK","updated_at":"2026-09-20T09:00:25.003137Z"}}}